Regional Weather Roundup
Issued by NWS Newport/Morehead, NC

Current Version | Previous Version | Text Only | Print | Product List | Glossary Off
Versions: 1 2 3 4 5 6 7 8 9 10 11 12 13 14 15 16 17 18 19 20 21 22 23 24 25 26 27 28 29 30 31 32 33 34 35 36 37 38 39 40 41 42 43 44 45 46 47 48 49 50
000 ASUS42 KMHX 242022 RWRMHX WEATHER ROUNDUP FOR EASTERN NORTH CAROLINA NATIONAL WEATHER SERVICE NEWPORT/MOREHEAD CITY NC 300 PM EST WED DEC 24 2014 NOTE: "FAIR" INDICATES FEW OR NO CLOUDS BELOW 12,000 FEET WITH NO SIGNIFICANT WEATHER AND/OR OBSTRUCTIONS TO VISIBILITY NCZ015>017-031-032-045>047-102-103-242100- NORTH COAST CITY SKY/WX TMP DP RH WIND PRES REMARKS EDENTON CLOUDY 65 65 98 S15G23 29.75S ELIZABETH CITY LGT RAIN 72 66 83 S17G24 29.74F KITTY HAWK RAIN 66 66 99 S14G26 29.77F MANTEO RAIN 61 61 100 S21 29.79F $$ NCZ045>047-081-094-103-104-242100- CENTRAL COAST CITY SKY/WX TMP DP RH WIND PRES REMARKS FRISCO LGT RAIN 65 64 97 SW17G26 29.83S FOG SWANQUARTER N/A 61 N/A N/A S12G22 29.74F $$ NCZ095-097-098-100-101-242100- SOUTHERN COAST CITY SKY/WX TMP DP RH WIND PRES REMARKS BEAUFORT CLOUDY 67 66 97 S17 29.79F FOG CEDAR ISLAND N/A 70 N/A N/A S18G26 29.82S JACKSONVILLE RAIN 71 68 90 SW10 29.77F FOG PINEY ISLAND CLOUDY 71 67 87 S14 29.79F WILMINGTON LGT RAIN 72 69 90 SW17G25 29.77S $$ NCZ011>013-027>030-043-044-078>080-089-090>093-098-242100- COASTAL PLAIN CITY SKY/WX TMP DP RH WIND PRES REMARKS AHOSKIE HVY RAIN 63 62 97 NW6 29.73R CLINTON RAIN 67 66 96 S8 29.74F ELIZABETHTOWN LGT RAIN 68 66 94 S10G16 29.76S GOLDSBORO CLOUDY 70 70 100 S9 29.71F GREENVILLE RAIN 70 68 94 SW14G22 29.77S HAVELOCK LGT RAIN 70 67 90 SW15 29.79F KENANSVILLE LGT RAIN 66 64 91 S3G16 29.76S KINSTON DRIZZLE 70 68 94 S13 29.75F NEW BERN HVY RAIN 72 68 87 SW12 29.79R FOG RICHLANDS CLOUDY 70 66 88 SW13G23 29.77S ROCKY MOUNT CLOUDY 65 63 93 CALM 29.73F WASHINGTON CLOUDY 70 67 92 S12 29.75S WHITEVILLE LGT RAIN 67 64 91 SW8 29.77S $$ AMZ130-135-150-152-154-156-158-170-250-252-270-ANZ085-086-088-633-658-670-242100- MARINE OBSERVATIONS STATION/POSITION TIME TEMP WIND PRES WAVE SWELL AIR SEA DIR/SP/G HT/PER HT/PER (UTC) (F) (DEG/KT/KT) (MB) (FT/S) (FT/S) CHESAPEAKE LIGHT 2000 59 180/ 29/ 32 1006.2 64 E VA BEACH 2000 60 53 180/ 19/ 23 1008.2 5/ 6 2/11 DUCK 2000 66 49 170/ 23/ 30 1006.2 2 E DUCK 2000 49 N/A 4/ 9 10 NE DUCK 2000 50 N/A 4/ 9 2/11 OREGON INLET 2000 60 51 170/ 14/ 17 1009.3 13E OREGON INLT 2000 52 N/A 7/ 7 2/11 HATTERAS CG 2000 55 190/ 9/ 15 1010.0 DIAMOND BUOY 2000 76 1009.4 8/ 7 17 S OCRACOKE NOT AVBL CAPE LOOKOUT 1900 65 180/ 17/ 18 1009.5 BEAUFORT LAB 2000 63 54 180/ 14/ 16 1007.8 30 SE NEW RIVER 2000 69 60 190/ 19/ 21 1009.0 9/ 8 5 SE WRIGHTSVLE NOT AVBL 225 S CAPE HAT 1950 75 72 200/ 17/ 19 1014.9 5/ 6 2/10 41 SE CHARLESTON 2000 76 73 190/ 25/ 31 1007.7 10/ 8 3/15 $$

USA.gov is the U.S. government's official web portal to all federal, state and local government web resources and services.